Wind_Speed
19 22 26 23 23 22 9 9 9 12 17 18 21 23 16 18 23 22 22 23 22 20 21 22 21 20 20 18 17 16 17 15 14 18 22 25 27 29 30 31 33 35 37 38
19 25 20 17 16 20 25 21 15 13 15 17 21 25 22 21 24 22 22 23 23 24 24 24 22 21 22 19 17 17 17 15 16 21 25 27 30 31 32 33 35 37 38 39
23 14 8 20 20 19 20 26 27 20 20 18 21 30 25 21 21 21 25 27 27 28 26 24 22 22 22 20 17 18 17 17 20 23 26 29 32 34 35 36 37 38 39 41
19 21 23 14 18 22 24 22 21 20 17 9 10 7 17 17 18 18 20 19 23 26 25 24 20 24 22 19 19 18 19 20 23 25 28 31 32 34 36 37 38 39 40 41
16 16 18 25 25 19 22 21 18 17 19 19 19 9 15 13 16 13 15 17 20 24 22 19 18 21 20 18 19 19 20 22 24 26 29 30 33 35 35 36 38 38 40 42
25 19 16 16 20 21 19 15 11 10 9 5 21 19 9 19 16 14 17 20 21 22 20 18 19 19 17 19 18 21 22 24 25 27 29 30 32 33 34 36 36 38 40 42
30 29 28 22 16 17 21 13 1 1 2 6 11 13 24 14 16 14 12 13 15 17 15 15 15 14 16 17 20 23 23 25 26 27 27 29 30 32 34 35 37 39 41 42
19 15 33 28 29 18 23 23 7 7 4 4 11 10 7 15 22 18 9 13 14 13 12 11 12 14 16 18 21 22 23 24 25 24 25 27 28 30 31 35 37 39 42 42
10 11 12 26 28 27 20 26 24 3 3 0 7 10 10 10 10 12 17 17 14 12 9 8 10 13 15 16 18 19 21 22 22 22 23 24 27 28 31 33 35 38 41 41
20 9 12 16 19 26 23 21 11 12 2 4 5 11 15 15 22 23 20 22 18 14 5 5 8 11 13 14 15 18 19 19 19 19 19 23 25 28 31 32 34 37 41 43
25 22 11 16 18 23 26 21 14 8 8 5 2 8 13 18 22 17 21 22 18 10 7 7 10 10 11 13 16 18 18 18 17 16 19 22 24 28 30 31 34 36 40 45
29 15 18 29 19 20 27 31 32 13 9 8 5 14 8 12 14 18 23 22 16 10 7 9 11 12 13 15 17 17 17 15 14 15 18 20 24 27 29 30 33 35 39 43
23 17 6 4 15 23 27 33 37 37 26 33 9 7 23 19 10 23 24 24 18 15 12 14 15 14 14 16 17 17 16 14 12 14 16 19 23 25 28 29 30 33 37 41
22 24 19 16 6 6 21 36 33 37 34 28 43 19 24 16 20 21 24 24 21 20 18 17 16 14 15 17 18 17 15 13 12 13 15 18 22 24 25 25 27 29 35 38
28 27 30 30 20 14 12 11 22 43 44 29 31 42 36 16 12 17 23 21 23 20 18 16 19 18 17 18 17 16 14 13 12 13 14 17 20 21 21 21 23 25 31 36
35 27 24 25 26 29 34 36 33 30 32 49 40 35 28 31 34 20 21 25 23 25 22 22 21 21 19 19 18 17 15 13 12 13 13 15 17 18 17 18 18 21 25 29
42 42 28 19 21 12 19 39 40 46 47 44 49 47 41 37 35 35 39 42 29 25 21 28 24 21 19 20 19 18 15 14 13 13 12 13 14 16 15 14 12 17 20 23
37 34 27 10 14 3 19 13 11 21 25 34 45 44 43 34 27 31 37 39 30 29 29 32 24 20 20 21 20 18 16 15 13 13 13 12 13 14 14 10 10 11 14 17
30 28 10 11 17 12 16 14 14 13 20 19 24 18 22 31 41 42 34 34 37 39 34 26 22 18 20 19 17 17 16 17 14 14 14 12 12 13 13 7 6 8 11 12
34 25 19 13 5 7 4 11 24 18 18 6 7 9 15 19 32 28 25 30 26 26 22 19 17 18 17 16 14 16 17 17 16 14 15 12 12 13 13 10 7 6 7 9
25 27 30 23 9 13 16 7 7 5 4 9 10 9 9 18 15 15 14 15 18 20 17 15 15 15 16 15 15 15 16 16 18 16 17 15 12 13 13 12 11 9 10 11
27 25 19 15 16 12 23 21 18 17 15 13 12 11 14 15 16 16 15 15 14 13 12 12 14 17 18 17 17 16 14 19 17 17 18 18 15 14 14 15 14 14 13 12
15 20 24 26 35 14 16 20 20 13 14 11 6 2 8 14 15 13 11 11 10 10 11 12 13 13 12 13 15 16 16 19 18 19 20 20 18 18 17 16 18 16 16 18
9 11 16 25 34 32 29 25 17 14 13 12 14 12 12 9 11 13 11 11 12 11 12 11 9 7 8 9 11 12 18 21 20 19 22 22 21 21 18 19 20 20 19 18
25 23 12 25 21 7 15 24 12 11 15 15 13 12 13 15 14 10 8 10 12 12 13 11 12 14 16 17 17 19 21 24 22 20 22 23 24 25 24 22 23 23 22 20
28 28 23 16 16 25 15 10 11 9 15 16 16 17 11 10 8 8 8 12 13 16 16 15 15 16 18 18 20 20 20 22 24 25 23 24 25 27 28 26 25 26 26 24
Wind_Direction
229 226 232 234 230 226 222 217 242 239 245 258 268 262 241 250 254 248 251 256 257 252 245 241 240 244 244 243 245 251 261 269 282 292 295 299 299 299 299 296 295 295 295 297
232 241 249 242 237 237 233 249 234 242 250 258 266 267 261 253 256 258 255 250 252 253 252 244 244 244 243 241 245 254 265 280 294 295 296 298 298 300 299 298 296 297 298 298
238 240 233 232 233 237 240 241 247 253 264 264 275 278 272 265 257 255 253 253 251 254 256 254 241 245 241 238 245 258 272 288 295 296 297 300 300 302 303 301 300 302 302 301
253 249 244 245 240 237 245 248 251 251 255 256 260 281 258 260 255 253 254 252 244 246 251 252 242 238 238 236 246 263 276 290 295 298 299 300 300 303 304 303 306 307 305 302
232 247 242 238 242 242 244 246 249 246 250 259 254 255 277 264 261 253 254 252 247 248 244 243 239 233 229 235 253 270 281 289 296 299 300 303 307 308 308 310 311 310 308 306
239 239 247 246 244 240 239 235 230 235 232 258 247 227 246 265 271 257 243 244 242 238 237 230 221 222 229 242 260 272 279 286 296 301 305 309 310 310 313 314 313 311 312 313
238 240 243 248 242 229 221 211 124 321 215 220 214 221 234 251 256 255 249 235 219 216 212 213 218 228 237 252 264 274 279 289 297 303 308 312 312 316 318 316 315 317 317 315
229 240 240 239 235 235 223 208 200 200 204 245 213 230 242 230 242 236 225 206 201 202 206 218 230 243 255 261 267 274 280 287 294 302 311 313 316 319 317 317 320 322 320 319
234 232 224 224 230 225 218 217 225 276 237 111 227 249 226 224 220 210 218 209 193 189 195 227 247 256 260 264 271 275 282 290 298 307 312 312 316 317 318 320 322 324 325 326
221 265 241 222 219 219 214 211 202 214 180 253 257 239 234 236 245 233 213 200 192 183 193 259 272 267 264 268 276 283 286 291 297 305 307 312 317 320 321 323 323 326 333 333
226 219 233 221 223 222 213 209 208 212 230 182 188 246 232 234 241 244 220 200 195 207 254 291 303 284 270 283 289 288 287 289 298 304 309 314 319 323 324 322 326 330 336 338
219 229 232 244 249 239 236 237 223 209 223 234 261 240 245 240 242 213 201 199 199 223 278 298 306 290 274 287 292 291 287 290 297 301 308 315 323 325 324 322 328 334 338 342
220 217 201 257 243 237 230 229 227 227 234 241 231 243 250 242 222 180 191 200 203 231 291 303 300 281 276 289 295 291 284 288 289 296 308 316 324 327 327 329 332 339 345 346
208 222 218 216 225 220 223 236 229 226 225 230 236 240 242 245 238 211 199 204 210 240 292 298 294 272 275 288 295 286 279 278 282 296 304 318 329 329 333 336 341 349 354 353
213 234 242 236 227 222 228 236 236 229 230 222 248 238 229 233 234 221 215 211 217 261 279 279 287 273 275 285 291 281 274 272 281 294 304 321 330 331 337 342 349 359 358 3
247 245 241 243 244 251 260 257 245 249 246 244 240 246 240 230 236 232 216 212 248 267 266 279 282 267 271 281 286 278 270 267 278 289 302 319 329 330 330 340 359 359 2 9
232 230 227 256 260 244 266 260 247 244 247 246 245 248 243 235 235 239 242 249 258 254 257 281 275 256 267 277 281 272 265 264 271 283 294 311 322 321 322 337 5 350 353 357
240 214 209 211 176 198 254 251 250 242 256 260 260 258 250 245 244 245 247 249 244 246 265 271 256 249 264 273 277 265 260 261 265 277 283 298 312 317 316 332 343 334 331 342
223 208 180 176 202 252 246 239 238 240 282 281 272 259 246 244 246 246 245 248 250 257 255 252 236 250 261 268 268 260 259 260 262 270 274 287 302 308 303 311 338 355 348 350
242 242 221 186 174 208 235 222 247 261 278 308 303 257 237 234 242 245 243 245 242 234 224 219 236 248 257 261 263 259 257 258 261 266 269 275 287 299 295 294 304 317 333 343
217 218 219 213 228 250 241 257 198 215 281 297 297 283 249 236 238 220 219 213 202 196 207 220 235 246 254 257 259 260 259 260 262 267 272 272 276 287 290 281 285 296 310 321
208 197 210 206 208 260 243 242 247 268 281 282 294 288 263 216 200 189 187 189 192 199 219 237 248 256 263 264 260 262 269 263 269 266 272 276 273 274 279 274 272 284 294 305
226 211 210 213 228 233 238 243 255 277 266 260 269 134 143 153 155 169 186 201 216 226 239 254 265 268 265 264 264 267 266 275 274 271 269 271 275 275 273 273 275 278 290 301
260 217 222 229 243 245 247 257 279 275 247 248 208 197 178 190 212 212 222 240 252 261 264 264 254 251 270 281 287 281 270 274 277 274 271 270 270 270 270 272 271 274 281 290
293 282 286 235 211 208 238 238 251 290 234 213 215 231 234 226 231 242 251 260 257 258 269 268 259 264 275 281 289 290 278 272 276 275 274 272 270 271 269 266 269 271 275 280
284 287 289 275 233 233 209 189 223 233 230 222 227 234 254 257 256 250 267 280 281 278 278 278 278 280 285 287 290 285 279 280 277 270 270 273 270 267 269 272 273 274 274 276
Height
3044 3045 3043 3047 3050 3053 3055 3054 3054 3054 3056 3055 3054 3052 3055 3057 3057 3059 3060 3061 3061 3062 3064 3065 3067 3068 3069 3071 3072 3073 3074 3074 3072 3071 3071 3070 3068 3066 3063 3059 3056 3052 3048 3044
3041 3039 3044 3046 3048 3049 3052 3051 3052 3052 3052 3052 3049 3046 3048 3050 3051 3052 3054 3054 3055 3055 3057 3059 3061 3062 3064 3066 3067 3068 3069 3068 3066 3065 3064 3063 3061 3059 3056 3052 3049 3045 3040 3035
3035 3038 3038 3040 3043 3045 3046 3046 3048 3051 3049 3048 3046 3040 3041 3043 3044 3045 3045 3047 3047 3047 3049 3052 3055 3057 3059 3061 3062 3063 3063 3061 3060 3059 3057 3056 3054 3051 3048 3045 3041 3037 3031 3026
3032 3033 3035 3037 3038 3042 3042 3043 3045 3046 3047 3046 3043 3039 3035 3037 3038 3038 3039 3040 3040 3041 3043 3045 3049 3051 3053 3056 3057 3058 3057 3056 3054 3053 3051 3049 3046 3044 3041 3036 3033 3028 3023 3017
3028 3028 3030 3032 3035 3038 3038 3039 3041 3042 3042 3041 3039 3041 3027 3029 3030 3031 3032 3033 3035 3035 3038 3040 3043 3046 3049 3051 3052 3053 3052 3050 3048 3047 3045 3041 3039 3035 3032 3028 3023 3019 3013 3006
3024 3026 3026 3028 3030 3032 3035 3036 3038 3038 3039 3039 3033 3033 3023 3023 3023 3025 3026 3026 3028 3030 3034 3037 3039 3041 3045 3046 3047 3047 3046 3044 3043 3040 3037 3034 3032 3029 3025 3020 3016 3010 3004 2997
3020 3020 3022 3025 3027 3029 3031 3033 3036 3041 3042 3032 3025 3026 3016 3017 3018 3020 3020 3021 3023 3027 3030 3033 3036 3038 3040 3041 3041 3041 3039 3038 3036 3033 3031 3028 3025 3021 3017 3013 3008 3001 2995 2988
3014 3016 3016 3017 3021 3023 3025 3028 3026 3035 3032 3022 3021 3016 3008 3010 3011 3014 3016 3018 3021 3024 3027 3029 3032 3033 3035 3036 3035 3034 3033 3032 3030 3028 3025 3022 3019 3016 3011 3006 3000 2994 2987 2980
3012 3010 3009 3010 3012 3018 3019 3020 3023 3022 3021 3021 3013 3009 3007 3006 3008 3009 3012 3015 3018 3021 3024 3026 3027 3028 3029 3030 3030 3029 3027 3026 3024 3021 3020 3018 3015 3010 3006 3000 2994 2988 2980 2971
3005 3009 3006 3006 3008 3010 3012 3015 3019 3019 3023 3025 3007 3004 3001 3001 3002 3004 3007 3011 3014 3017 3020 3022 3023 3024 3024 3025 3024 3023 3021 3020 3018 3017 3015 3012 3009 3004 2998 2993 2988 2981 2973 2964
3000 3001 3003 3003 3001 3003 3006 3007 3010 3010 3009 3008 3010 2996 2996 2996 2998 2999 3002 3007 3011 3013 3016 3018 3018 3018 3018 3019 3018 3017 3016 3014 3013 3011 3009 3006 3002 2997 2992 2987 2982 2975 2966 2957
2994 2996 2996 2996 2996 2998 3000 3002 3004 3007 3004 3002 3000 2990 2992 2993 2992 2995 2999 3003 3007 3009 3011 3013 3013 3013 3014 3014 3013 3011 3010 3008 3007 3006 3004 3001 2997 2992 2988 2983 2977 2969 2961 2952
2988 2989 2992 2992 2994 2991 2990 2991 2994 2998 2999 2992 2998 2983 2989 2991 2990 2990 2995 2999 3002 3004 3006 3007 3007 3008 3008 3008 3007 3006 3004 3003 3002 3001 2998 2996 2992 2988 2984 2978 2971 2965 2958 2949
2981 2978 2979 2980 2979 2981 2982 2982 2986 2990 2988 2985 2975 2983 2986 2987 2987 2989 2991 2995 2998 2999 3000 3000 3001 3002 3003 3002 3001 3000 2999 2999 2998 2995 2993 2990 2986 2984 2980 2974 2967 2962 2955 2946
2972 2970 2973 2974 2975 2976 2976 2977 2977 2975 2976 2976 2972 2974 2982 2984 2984 2986 2988 2990 2993 2994 2994 2995 2996 2996 2996 2996 2995 2994 2994 2993 2992 2990 2988 2985 2982 2981 2976 2970 2965 2959 2953 2946
2963 2964 2966 2966 2970 2971 2969 2969 2969 2968 2969 2967 2967 2964 2973 2978 2980 2981 2982 2984 2987 2988 2988 2989 2990 2990 2990 2990 2989 2988 2988 2987 2986 2985 2983 2980 2978 2977 2972 2968 2963 2957 2953 2947
2955 2956 2957 2957 2963 2964 2962 2948 2952 2954 2956 2959 2951 2952 2966 2968 2969 2972 2975 2976 2980 2980 2982 2982 2983 2983 2984 2983 2982 2982 2982 2981 2981 2979 2977 2976 2974 2973 2968 2965 2962 2956 2952 2947
2945 2945 2950 2953 2955 2959 2943 2943 2942 2943 2948 2947 2942 2946 2952 2956 2961 2963 2966 2967 2970 2972 2974 2974 2975 2976 2977 2976 2976 2975 2975 2975 2975 2974 2972 2971 2970 2968 2965 2961 2958 2954 2950 2947
2937 2937 2939 2941 2943 2939 2937 2939 2938 2938 2939 2939 2935 2937 2938 2942 2946 2946 2955 2958 2961 2963 2964 2965 2968 2969 2969 2969 2969 2969 2969 2969 2969 2968 2967 2966 2964 2963 2961 2957 2954 2951 2949 2944
2929 2932 2934 2934 2935 2938 2932 2932 2934 2935 2935 2932 2931 2931 2932 2934 2932 2940 2944 2945 2949 2953 2956 2958 2961 2962 2963 2963 2963 2963 2963 2963 2963 2963 2962 2960 2958 2958 2957 2955 2951 2949 2946 2943
2920 2923 2925 2926 2930 2926 2927 2931 2932 2934 2935 2929 2929 2928 2927 2927 2932 2934 2937 2939 2943 2947 2951 2953 2955 2956 2956 2957 2957 2957 2957 2957 2956 2956 2956 2955 2953 2952 2952 2950 2949 2946 2944 2941
2913 2916 2921 2923 2927 2925 2922 2927 2931 2930 2928 2928 2927 2926 2924 2924 2926 2930 2935 2938 2942 2945 2947 2949 2950 2950 2950 2951 2951 2951 2952 2950 2950 2950 2950 2950 2948 2946 2946 2946 2944 2942 2940 2936
2911 2910 2912 2914 2912 2916 2919 2923 2926 2926 2926 2926 2927 2925 2925 2925 2927 2931 2934 2937 2939 2941 2942 2943 2943 2944 2944 2944 2945 2946 2946 2944 2944 2944 2944 2944 2943 2942 2940 2939 2939 2937 2935 2933
2901 2902 2905 2909 2908 2912 2918 2920 2923 2923 2923 2924 2925 2926 2926 2927 2928 2929 2931 2934 2935 2936 2937 2938 2939 2939 2939 2940 2940 2940 2938 2937 2937 2938 2937 2937 2937 2936 2934 2933 2932 2931 2929 2927
2903 2899 2900 2898 2903 2906 2910 2915 2918 2919 2920 2920 2921 2922 2922 2922 2924 2925 2927 2928 2930 2931 2932 2933 2934 2935 2934 2933 2933 2933 2932 2930 2930 2930 2930 2929 2930 2929 2928 2926 2925 2924 2923 2921
2898 2896 2897 2895 2898 2901 2903 2905 2909 2910 2914 2918 2919 2919 2919 2921 2922 2924 2926 2927 2927 2927 2927 2927 2928 2928 2928 2927 2926 2924 2923 2923 2922 2922 2922 2921 2921 2921 2921 2920 2918 2918 2916 2914